Location: Poughquag
(41.6090°N, 73.6820°W)
Time: 03:14:20
(UTC-04:00)

Transit 4A - Pass Details

Date: 31 May 2020
Orbit: 866 x 978 km, 66.8° (Epoch: 06 July)

Event Time Altitude Azimuth Distance (km) Brightness Sun altitude
Rises 08:45:42 0° 339° (NNW) 3,543 10.8 35.3°
Reaches altitude 10° 08:50:24 10° 12° (NNE) 2,629 10.5 36.2°
Maximum altitude 08:52:21 11° 31° (NNE) 2,535 10.7 36.5°
Drops below altitude 10° 08:54:18 10° 50° (NE) 2,652 11.0 36.9°
Sets 08:59:05 0° 82° (E) 3,623 11.9 37.8°
